Time,TemperatureF,DewpointF,PressureIn,WindDirection,WindDirectionDegrees,WindSpeedMPH,WindSpeedGustMPH,Humidity,HourlyPrecipIn,Conditions,Clouds,dailyrainin,SoftwareType,DateUTC
2013-05-03 00:01:00,38.4,33.0,30.41,North,360,2.0,7.0,81,0.00,,,0.00,weatherlink.com 1.10,2013-05-03 05:01:00,
2013-05-03 00:16:00,37.8,33.0,30.41,North,349,3.0,4.0,82,0.00,,,0.00,weatherlink.com 1.10,2013-05-03 05:16:00,
2013-05-03 00:31:00,37.7,33.0,30.40,NNE,12,2.0,6.0,82,0.00,,,0.00,weatherlink.com 1.10,2013-05-03 05:31:00,
2013-05-03 00:46:00,37.2,33.0,30.40,North,360,1.0,4.0,83,0.00,,,0.00,weatherlink.com 1.10,2013-05-03 05:46:00,
2013-05-03 01:01:00,36.6,32.0,30.40,NNW,330,1.0,2.0,84,0.00,,,0.00,weatherlink.com 1.10,2013-05-03 06:01:00,
2013-05-03 01:16:00,36.0,32.0,30.39,NNE,12,0.0,1.0,85,0.00,,,0.00,weatherlink.com 1.10,2013-05-03 06:16:00,
2013-05-03 01:31:00,35.5,32.0,30.39,NNW,344,0.0,2.0,87,0.00,,,0.00,weatherlink.com 1.10,2013-05-03 06:31:00,
2013-05-03 01:46:00,35.1,32.0,30.38,North,354,1.0,2.0,87,0.00,,,0.00,weatherlink.com 1.10,2013-05-03 06:46:00,
2013-05-03 02:01:00,34.8,32.0,30.37,NNE,30,1.0,2.0,88,0.00,,,0.00,weatherlink.com 1.10,2013-05-03 07:01:00,
2013-05-03 02:16:00,34.9,32.0,30.37,North,349,1.0,3.0,88,0.00,,,0.00,weatherlink.com 1.10,2013-05-03 07:16:00,
2013-05-03 02:31:00,34.4,32.0,30.37,North,6,2.0,3.0,89,0.00,,,0.00,weatherlink.com 1.10,2013-05-03 07:31:00,
2013-05-03 02:46:00,34.1,31.0,30.36,North,1,0.0,2.0,89,0.00,,,0.00,weatherlink.com 1.10,2013-05-03 07:46:00,
2013-05-03 03:01:00,33.5,31.0,30.36,WNW,297,0.0,2.0,90,0.00,,,0.00,weatherlink.com 1.10,2013-05-03 08:01:00,
2013-05-03 03:16:00,33.3,31.0,30.36,NW,305,0.0,1.0,90,0.00,,,0.00,weatherlink.com 1.10,2013-05-03 08:16:00,
2013-05-03 03:31:00,32.9,31.0,30.36,NW,321,0.0,1.0,91,0.00,,,0.00,weatherlink.com 1.10,2013-05-03 08:31:00,
2013-05-03 03:46:00,32.8,31.0,30.36,ENE,58,0.0,2.0,91,0.00,,,0.00,weatherlink.com 1.10,2013-05-03 08:46:00,
2013-05-03 04:01:00,32.5,30.0,30.35,WNW,297,0.0,2.0,91,0.00,,,0.00,weatherlink.com 1.10,2013-05-03 09:01:00,
2013-05-03 04:16:00,32.5,30.0,30.35,NW,316,0.0,3.0,91,0.00,,,0.00,weatherlink.com 1.10,2013-05-03 09:16:00,
2013-05-03 04:31:00,32.5,30.0,30.35,WNW,298,0.0,4.0,91,0.00,,,0.00,weatherlink.com 1.10,2013-05-03 09:31:00,
2013-05-03 04:46:00,32.3,30.0,30.35,SE,146,0.0,3.0,91,0.00,,,0.00,weatherlink.com 1.10,2013-05-03 09:46:00,
2013-05-03 05:01:00,32.0,30.0,30.35,WNW,283,0.0,1.0,91,0.00,,,0.00,weatherlink.com 1.10,2013-05-03 10:01:00,
2013-05-03 05:16:00,31.2,29.0,30.35,West,279,0.0,0.0,91,0.00,,,0.00,weatherlink.com 1.10,2013-05-03 10:16:00,
2013-05-03 05:31:00,30.8,29.0,30.35,West,271,1.0,1.0,92,0.00,,,0.00,weatherlink.com 1.10,2013-05-03 10:31:00,
2013-05-03 05:46:00,30.9,29.0,30.34,West,264,0.0,1.0,92,0.00,,,0.00,weatherlink.com 1.10,2013-05-03 10:46:00,
2013-05-03 06:01:00,30.8,29.0,30.34,SW,222,0.0,1.0,92,0.00,,,0.00,weatherlink.com 1.10,2013-05-03 11:01:00,
2013-05-03 06:17:00,30.9,29.0,30.33,West,270,0.0,1.0,92,0.00,,,0.00,weatherlink.com 1.10,2013-05-03 11:17:00,
2013-05-03 06:32:00,30.3,28.0,30.33,NNW,340,0.0,2.0,92,0.00,,,0.00,weatherlink.com 1.10,2013-05-03 11:32:00,
2013-05-03 06:47:00,-999.0,-99.9,30.33,North,-999,-999.0,-999.0,-999,0.00,,,0.00,weatherlink.com 1.10,2013-05-03 11:47:00,
2013-05-03 07:02:00,-999.0,-99.9,30.33,North,-999,-999.0,-999.0,-999,0.00,,,0.00,weatherlink.com 1.10,2013-05-03 12:02:00,
2013-05-03 07:17:00,-999.0,-99.9,30.33,North,-999,-999.0,-999.0,-999,0.00,,,0.00,weatherlink.com 1.10,2013-05-03 12:17:00,
2013-05-03 07:32:00,-999.0,-99.9,30.34,North,-999,-999.0,-999.0,-999,0.00,,,0.00,weatherlink.com 1.10,2013-05-03 12:32:00,
2013-05-03 07:47:00,36.3,33.0,30.33,West,279,4.0,5.0,86,0.00,,,0.00,weatherlink.com 1.10,2013-05-03 12:47:00,
2013-05-03 08:02:00,38.8,33.0,30.33,NW,312,3.0,9.0,81,0.00,,,0.00,weatherlink.com 1.10,2013-05-03 13:02:00,
2013-05-03 08:17:00,40.7,34.0,30.33,NNE,20,4.0,8.0,77,0.00,,,0.00,weatherlink.com 1.10,2013-05-03 13:17:00,
2013-05-03 08:32:00,42.3,35.0,30.33,NW,316,6.0,6.0,74,0.00,,,0.00,weatherlink.com 1.10,2013-05-03 13:32:00,
2013-05-03 08:47:00,44.3,36.0,30.33,NW,308,0.0,9.0,72,0.00,,,0.00,weatherlink.com 1.10,2013-05-03 13:47:00,
2013-05-03 09:02:00,47.2,36.0,30.33,NNE,13,3.0,10.0,65,0.00,,,0.00,weatherlink.com 1.10,2013-05-03 14:02:00,
2013-05-03 09:17:00,49.0,36.0,30.33,NW,326,7.0,11.0,61,0.00,,,0.00,weatherlink.com 1.10,2013-05-03 14:17:00,
2013-05-03 09:32:00,50.6,34.0,30.33,NE,41,3.0,18.0,53,0.00,,,0.00,weatherlink.com 1.10,2013-05-03 14:32:00,
2013-05-03 09:47:00,51.8,32.0,30.32,North,7,6.0,16.0,48,0.00,,,0.00,weatherlink.com 1.10,2013-05-03 14:47:00,
2013-05-03 10:02:00,52.5,32.0,30.32,NW,320,17.0,18.0,45,0.00,,,0.00,weatherlink.com 1.10,2013-05-03 15:02:00,
2013-05-03 10:17:00,53.2,29.0,30.32,NNW,341,11.0,20.0,39,0.00,,,0.00,weatherlink.com 1.10,2013-05-03 15:17:00,
2013-05-03 10:32:00,53.8,30.0,30.31,North,357,9.0,18.0,40,0.00,,,0.00,weatherlink.com 1.10,2013-05-03 15:32:00,
2013-05-03 10:47:00,54.7,31.0,30.31,NNE,25,3.0,15.0,41,0.00,,,0.00,weatherlink.com 1.10,2013-05-03 15:47:00,
2013-05-03 11:02:00,55.2,32.0,30.30,NW,314,4.0,17.0,42,0.00,,,0.00,weatherlink.com 1.10,2013-05-03 16:02:00,
2013-05-03 11:17:00,56.2,33.0,30.30,SW,231,9.0,17.0,42,0.00,,,0.00,weatherlink.com 1.10,2013-05-03 16:17:00,
2013-05-03 11:32:00,56.2,32.0,30.30,NNE,22,12.0,19.0,40,0.00,,,0.00,weatherlink.com 1.10,2013-05-03 16:32:00,
2013-05-03 11:47:00,57.0,33.0,30.29,NNW,334,12.0,16.0,40,0.00,,,0.00,weatherlink.com 1.10,2013-05-03 16:47:00,
2013-05-03 12:02:00,58.0,31.0,30.28,NNE,14,11.0,16.0,36,0.00,,,0.00,weatherlink.com 1.10,2013-05-03 17:02:00,
2013-05-03 12:17:00,58.7,30.0,30.27,NNW,344,13.0,19.0,34,0.00,,,0.00,weatherlink.com 1.10,2013-05-03 17:17:00,
2013-05-03 12:32:00,59.4,29.0,30.26,West,266,5.0,21.0,31,0.00,,,0.00,weatherlink.com 1.10,2013-05-03 17:32:00,
2013-05-03 12:47:00,60.1,30.0,30.25,NNE,27,6.0,15.0,32,0.00,,,0.00,weatherlink.com 1.10,2013-05-03 17:47:00,
2013-05-03 13:02:00,60.3,30.0,30.24,North,354,7.0,17.0,32,0.00,,,0.00,weatherlink.com 1.10,2013-05-03 18:02:00,
2013-05-03 13:32:00,60.5,26.0,30.22,North,4,11.0,19.0,27,0.00,,,0.00,weatherlink.com 1.10,2013-05-03 18:32:00,
2013-05-03 13:47:00,60.8,26.0,30.22,NW,318,9.0,21.0,27,0.00,,,0.00,weatherlink.com 1.10,2013-05-03 18:47:00,
2013-05-03 14:02:00,61.3,24.0,30.20,North,3,20.0,25.0,24,0.00,,,0.00,weatherlink.com 1.10,2013-05-03 19:02:00,
2013-05-03 14:17:00,61.6,27.0,30.20,NNW,330,3.0,23.0,27,0.00,,,0.00,weatherlink.com 1.10,2013-05-03 19:17:00,
2013-05-03 14:33:00,62.2,28.0,30.19,North,5,16.0,18.0,27,0.00,,,0.00,weatherlink.com 1.10,2013-05-03 19:33:00,
2013-05-03 14:48:00,62.4,27.0,30.18,NW,318,4.0,16.0,26,0.00,,,0.00,weatherlink.com 1.10,2013-05-03 19:48:00,
2013-05-03 15:03:00,62.4,27.0,30.18,WNW,294,4.0,12.0,26,0.00,,,0.00,weatherlink.com 1.10,2013-05-03 20:03:00,
2013-05-03 15:18:00,63.0,28.0,30.16,NW,314,7.0,11.0,27,0.00,,,0.00,weatherlink.com 1.10,2013-05-03 20:18:00,
2013-05-03 15:33:00,61.7,27.0,30.16,NNW,340,9.0,15.0,27,0.00,,,0.00,weatherlink.com 1.10,2013-05-03 20:33:00,
2013-05-03 15:48:00,62.1,27.0,30.14,NNW,348,8.0,12.0,26,0.00,,,0.00,weatherlink.com 1.10,2013-05-03 20:48:00,
2013-05-03 16:03:00,61.4,28.0,30.14,West,281,5.0,9.0,28,0.00,,,0.00,weatherlink.com 1.10,2013-05-03 21:03:00,
2013-05-03 16:18:00,63.0,29.0,30.12,NNE,15,0.0,13.0,28,0.00,,,0.00,weatherlink.com 1.10,2013-05-03 21:18:00,
2013-05-03 16:33:00,63.8,28.0,30.12,NW,326,8.0,17.0,26,0.00,,,0.00,weatherlink.com 1.10,2013-05-03 21:33:00,
2013-05-03 16:48:00,62.2,29.0,30.11,NNW,343,5.0,8.0,29,0.00,,,0.00,weatherlink.com 1.10,2013-05-03 21:48:00,
2013-05-03 17:03:00,63.2,29.0,30.11,NW,312,4.0,10.0,28,0.00,,,0.00,weatherlink.com 1.10,2013-05-03 22:03:00,
2013-05-03 17:18:00,63.5,30.0,30.10,ESE,108,1.0,11.0,28,0.00,,,0.00,weatherlink.com 1.10,2013-05-03 22:18:00,
2013-05-03 17:33:00,62.8,29.0,30.10,North,11,4.0,14.0,28,0.00,,,0.00,weatherlink.com 1.10,2013-05-03 22:33:00,
2013-05-03 17:48:00,63.6,28.0,30.09,NE,49,3.0,10.0,26,0.00,,,0.00,weatherlink.com 1.10,2013-05-03 22:48:00,
2013-05-03 18:03:00,63.1,29.0,30.09,NNW,345,3.0,10.0,28,0.00,,,0.00,weatherlink.com 1.10,2013-05-03 23:03:00,
2013-05-03 18:18:00,62.4,30.0,30.08,NNE,25,9.0,12.0,29,0.00,,,0.00,weatherlink.com 1.10,2013-05-03 23:18:00,
2013-05-03 18:33:00,62.4,29.0,30.08,NNW,338,3.0,11.0,28,0.00,,,0.00,weatherlink.com 1.10,2013-05-03 23:33:00,
2013-05-03 18:48:00,62.0,29.0,30.07,WNW,290,4.0,11.0,29,0.00,,,0.00,weatherlink.com 1.10,2013-05-03 23:48:00,
2013-05-03 19:03:00,61.5,29.0,30.07,North,349,4.0,11.0,29,0.00,,,0.00,weatherlink.com 1.10,2013-05-04 00:03:00,
2013-05-03 19:18:00,61.1,29.0,30.06,NNW,336,3.0,6.0,30,0.00,,,0.00,weatherlink.com 1.10,2013-05-04 00:18:00,
2013-05-03 19:33:00,60.2,30.0,30.06,North,353,1.0,6.0,32,0.00,,,0.00,weatherlink.com 1.10,2013-05-04 00:33:00,
2013-05-03 19:48:00,58.7,31.0,30.06,North,8,0.0,2.0,35,0.00,,,0.00,weatherlink.com 1.10,2013-05-04 00:48:00,
2013-05-03 20:03:00,56.3,33.0,30.06,North,11,0.0,0.0,41,0.00,,,0.00,weatherlink.com 1.10,2013-05-04 01:03:00,
2013-05-03 20:18:00,52.6,33.0,30.06,West,274,0.0,0.0,48,0.00,,,0.00,weatherlink.com 1.10,2013-05-04 01:18:00,
2013-05-03 20:33:00,49.7,33.0,30.06,SW,235,0.0,1.0,54,0.00,,,0.00,weatherlink.com 1.10,2013-05-04 01:33:00,
2013-05-03 20:48:00,47.6,33.0,30.06,WSW,238,0.0,1.0,57,0.00,,,0.00,weatherlink.com 1.10,2013-05-04 01:48:00,
2013-05-03 21:03:00,46.0,33.0,30.06,SW,228,0.0,1.0,60,0.00,,,0.00,weatherlink.com 1.10,2013-05-04 02:03:00,
2013-05-03 21:18:00,44.6,32.0,30.06,SW,226,0.0,1.0,62,0.00,,,0.00,weatherlink.com 1.10,2013-05-04 02:18:00,
2013-05-03 21:33:00,43.5,32.0,30.07,SW,226,0.0,0.0,65,0.00,,,0.00,weatherlink.com 1.10,2013-05-04 02:33:00,
2013-05-03 21:48:00,42.7,32.0,30.07,SW,226,0.0,1.0,66,0.00,,,0.00,weatherlink.com 1.10,2013-05-04 02:48:00,
2013-05-03 22:03:00,41.7,32.0,30.07,SW,226,0.0,0.0,69,0.00,,,0.00,weatherlink.com 1.10,2013-05-04 03:03:00,
2013-05-03 22:18:00,40.8,32.0,30.07,SW,226,0.0,0.0,71,0.00,,,0.00,weatherlink.com 1.10,2013-05-04 03:18:00,
2013-05-03 22:33:00,40.3,32.0,30.07,SW,226,0.0,0.0,72,0.00,,,0.00,weatherlink.com 1.10,2013-05-04 03:33:00,
2013-05-03 22:48:00,39.5,32.0,30.07,SW,226,0.0,0.0,74,0.00,,,0.00,weatherlink.com 1.10,2013-05-04 03:48:00,
2013-05-03 23:03:00,39.0,32.0,30.07,SW,226,0.0,1.0,75,0.00,,,0.00,weatherlink.com 1.10,2013-05-04 04:03:00,
2013-05-03 23:18:00,38.4,31.0,30.06,SW,226,0.0,0.0,76,0.00,,,0.00,weatherlink.com 1.10,2013-05-04 04:18:00,
2013-05-03 23:33:00,37.4,31.0,30.06,SW,226,0.0,0.0,79,0.00,,,0.00,weatherlink.com 1.10,2013-05-04 04:33:00,
2013-05-03 23:48:00,37.0,31.0,30.06,SW,226,0.0,0.0,80,0.00,,,0.00,weatherlink.com 1.10,2013-05-04 04:48:00,